Location: Dehesa de la Cepeda
(40.6574°N, 4.3013°W)
Time: 04:23:30
(UTC+00:00)

BREEZE-M DEB (TANK) - Pass Details

Date: 05 July 2020
Orbit: 309 x 15750 km, 49.4° (Epoch: 11 August)

Event Time Altitude Azimuth Distance (km) Brightness Sun altitude
Rises 23:21:53 0° 301° (WNW) 4,315 7.5 -25.2°
Reaches altitude 10° 23:25:59 10° 298° (WNW) 2,281 6.0 -25.4°
Enters shadow 23:28:37 27° 286° (WNW) 975 3.8 -25.5°
